Location: Le Gr�zie
(43.6000°N, 13.5000°E)
Time: 16:17:46
(UTC+00:00)

ATLAS 5 CENTAUR R/B - Pass Details

Date: 09 April 2020
Orbit: 543 x 1116 km, 63.4° (Epoch: 01 May)

Event Time Altitude Azimuth Distance (km) Brightness Sun altitude
Rises 18:14:24 0° 201° (SSW) 2,699 4.9 -6.4°
Reaches altitude 10° 18:16:33 10° 196° (SSW) 1,833 4.0 -6.8°
Maximum altitude 18:20:29 51° 121° (ESE) 742 1.6 -7.4°
Drops below altitude 10° 18:24:52 10° 45° (NE) 2,034 4.0 -8.2°
Sets 18:27:22 0° 41° (NE) 3,032 4.9 -8.6°
